Cape Girardeau, MO

3:55 AM CDT on April 23, 2017 (GMT -0500)
Cape Girardeau Regional

Weather History for KCGI - September, 2012

Change the Weather History Date:

Friday, September 21, 2012

  Actual Average Record
Temperature  
Mean Temperature 65 °F 67 °F  
Max Temperature 80 °F 79 °F 94 °F (2010)
Min Temperature 50 °F 54 °F 39 °F (1991)
Degree Days  
Heating Degree Days 0 2  
Month to date heating degree days 15 15  
Since 1 July heating degree days 15 16  
Cooling Degree Days 0 4  
Month to date cooling degree days 127 136  
Year to date cooling degree days 1743 1396  
Growing Degree Days 15 (Base 50)    
Moisture  
Dew Point 56 °F    
Average Humidity 77    
Maximum Humidity 100    
Minimum Humidity 54    
Precipitation  
Precipitation 0.00 in 0.11 in 1.59 in (1967)
Month to date precipitation 4.97 2.32  
Year to date precipitation 20.15 33.37  
Sea Level Pressure  
Sea Level Pressure 29.94 in    
Wind  
Wind Speed 7 mph (SW)    
Max Wind Speed 23 mph    
Max Gust Speed 32 mph    
Visibility 6 miles    
Events Fog    
T = Trace of Precipitation, MM = Missing Value Source: NWS Daily Summary

Daily Weather History Graph

Daily Weather History Graph

Search for Another Location

Airport or City:

Trip Planner

Search our weather history database for the weather conditions in past years. The results will help you decide how hot, cold, wet, or windy it might be!

Date:

Astronomy

Sep. 21, 2012 Rise Set
Actual Time 6:45 AM CDT 6:55 PM CDT
Civil Twilight 6:19 AM CDT 7:21 PM CDT
Nautical Twilight 5:49 AM CDT 7:52 PM CDT
Astronomical Twilight 5:18 AM CDT 8:23 PM CDT
Moon 12:58 PM CDT (9/21) 11:04 PM CDT (9/21)
Length of Visible Light 13h 02m
Length of Day
12h 10m
Waxing Crescent, 37% of the Moon is Illuminated
Sep 21
Waxing Crescent
Sep 22
First Quarter
Sep 29
Full
Oct 8
Last Quarter
Oct 15
New

Hourly Weather History & Observations

Time (CDT) Temp. Dew Point Humidity Pressure Visibility Wind Dir Wind Speed Gust Speed Precip Events Conditions
12:53 AM 55.0 °F 54.0 °F 96% 30.00 in 8.0 mi Calm Calm - N/A   Clear
1:53 AM 55.9 °F 55.0 °F 97% 30.01 in 6.0 mi Calm Calm - N/A   Clear
2:00 AM 55.4 °F 53.6 °F 94% 30.01 in 0.8 mi Calm Calm - N/A   Clear
2:11 AM 53.6 °F 53.6 °F 100% 30.01 in 2.0 mi Calm Calm - N/A   Clear
2:18 AM 53.6 °F 53.6 °F 100% 30.01 in 6.0 mi Calm Calm - N/A   Clear
2:24 AM 51.8 °F 51.8 °F 100% 30.01 in 0.8 mi Calm Calm - N/A   Clear
2:28 AM 51.8 °F 51.8 °F 100% 30.01 in 0.2 mi Calm Calm - N/A Fog Fog
2:53 AM 53.1 °F 52.0 °F 96% 30.00 in 0.2 mi Calm Calm - N/A Fog Fog
3:05 AM 53.6 °F 53.6 °F 100% 30.00 in 1.0 mi Calm Calm - N/A   Mist
3:08 AM 53.6 °F 53.6 °F 100% 30.00 in 3.0 mi Calm Calm - N/A   Partly Cloudy
3:22 AM 53.6 °F 51.8 °F 94% 30.00 in 1.8 mi Calm Calm - N/A   Clear
3:27 AM 51.8 °F 51.8 °F 100% 30.00 in 2.0 mi Calm Calm - N/A   Partly Cloudy
3:34 AM 51.8 °F 50.0 °F 94% 29.99 in 1.0 mi Calm Calm - N/A   Mist
3:41 AM 53.6 °F 51.8 °F 94% 29.99 in 0.5 mi Calm Calm - N/A Fog Fog
3:48 AM 51.8 °F 51.8 °F 100% 29.99 in 0.2 mi Calm Calm - N/A Fog Fog
3:53 AM 52.0 °F 52.0 °F 100% 29.99 in 0.5 mi Calm Calm - N/A Fog Fog
4:07 AM 51.8 °F 51.8 °F 100% 29.99 in 0.2 mi SSE 3.5 mph - N/A Fog Fog
4:25 AM 53.6 °F 51.8 °F 94% 29.99 in 0.5 mi Calm Calm - N/A Fog Fog
4:32 AM 53.6 °F 51.8 °F 94% 29.99 in 2.5 mi ENE 3.5 mph - N/A   Scattered Clouds
4:39 AM 53.6 °F 51.8 °F 94% 29.99 in 6.0 mi NE 3.5 mph - N/A   Scattered Clouds
4:53 AM 53.1 °F 53.1 °F 100% 29.99 in 8.0 mi Calm Calm - N/A   Clear
5:53 AM 55.0 °F 54.0 °F 96% 30.00 in 6.0 mi Calm Calm - N/A   Partly Cloudy
6:53 AM 55.9 °F 55.0 °F 97% 30.01 in 7.0 mi West 4.6 mph - 0.01 in   Scattered Clouds
7:53 AM 57.9 °F 57.0 °F 97% 30.01 in 7.0 mi Calm Calm - 0.01 in   Mostly Cloudy
8:53 AM 61.0 °F 57.9 °F 90% 29.99 in 10.0 mi Calm Calm - N/A   Overcast
9:53 AM 63.0 °F 61.0 °F 93% 29.97 in 9.0 mi Calm Calm - N/A   Overcast
11:53 AM 73.0 °F 64.0 °F 73% 29.91 in 10.0 mi South 10.4 mph - N/A   Mostly Cloudy
12:53 PM 75.0 °F 62.1 °F 64% 29.88 in 10.0 mi South 15.0 mph 25.3 mph N/A   Clear
1:53 PM 75.9 °F 64.0 °F 67% 29.84 in 10.0 mi SSW 17.3 mph 26.5 mph N/A   Clear
2:53 PM 79.0 °F 63.0 °F 58% 29.81 in 10.0 mi SSW 23.0 mph 28.8 mph N/A   Clear
3:53 PM 79.0 °F 62.1 °F 56% 29.79 in 10.0 mi SW 16.1 mph 25.3 mph N/A   Partly Cloudy
4:53 PM 79.0 °F 61.0 °F 54% 29.78 in 10.0 mi SW 17.3 mph 32.2 mph N/A   Mostly Cloudy
5:53 PM 77.0 °F 62.1 °F 60% 29.79 in 10.0 mi SW 13.8 mph 21.9 mph N/A   Clear
6:53 PM 73.9 °F 63.0 °F 68% 29.80 in 10.0 mi SW 11.5 mph - N/A   Clear
7:53 PM 73.9 °F 61.0 °F 64% 29.81 in 10.0 mi SSW 10.4 mph 18.4 mph N/A   Scattered Clouds
8:53 PM 72.0 °F 61.0 °F 68% 29.82 in 10.0 mi SW 9.2 mph - N/A   Partly Cloudy
9:53 PM 68.0 °F 62.1 °F 81% 29.85 in 10.0 mi West 4.6 mph - N/A   Partly Cloudy
10:53 PM 64.9 °F 61.0 °F 87% 29.86 in 10.0 mi SW 6.9 mph - N/A   Clear
11:53 PM 63.0 °F 60.1 °F 90% 29.86 in 10.0 mi West 3.5 mph - N/A   Clear